This is the latest recevied weather packets stored in our database for station/object K1WJY. If no packets are shown the sender has not sent any weather packets the latest 10 day(s).
| Time | Temp. | Humidity | Pressure | Rain* | Wind** | Luminosity | Snow |
|---|---|---|---|---|---|---|---|
| 1777696997 | 1.11° C | 97% | 1014.8 hPa | 0 mm | - | 0 W/m² | - |
| 1777696694 | 1.11° C | 97% | 1014.7 hPa | 0 mm | - | 0 W/m² | - |
| 1777696392 | 1.11° C | 96% | 1014.6 hPa | 0 mm | - | 0 W/m² | - |
| 1777696091 | 1.11° C | 96% | 1014.6 hPa | 0 mm | - | 0 W/m² | - |
| 1777695789 | 1.67° C | 96% | 1014.5 hPa | 0 mm | - | 0 W/m² | - |
| 1777695486 | 1.67° C | 95% | 1014.5 hPa | 0 mm | - | 0 W/m² | - |
| 1777695183 | 1.67° C | 94% | 1014.4 hPa | 0 mm | - | 0 W/m² | - |
| 1777694880 | 2.22° C | 94% | 1014.6 hPa | 0 mm | - | 0 W/m² | - |
| 1777694577 | 2.22° C | 93% | 1014.3 hPa | 0 mm | - | 0 W/m² | - |
| 1777694273 | 2.78° C | 91% | 1014.5 hPa | 0 mm | - | 0 W/m² | - |
| 1777693970 | 2.78° C | 90% | 1014.1 hPa | 0 mm | - | 0 W/m² | - |
| 1777693667 | 3.33° C | 88% | 1014.2 hPa | 0 mm | - | 0 W/m² | - |
| 1777693365 | 3.89° C | 86% | 1013.9 hPa | 0 mm | - | 0 W/m² | - |
| 1777693063 | 3.89° C | 81% | 1014.2 hPa | 0 mm | - | 0 W/m² | - |
| 1777692761 | 4.44° C | 80% | 1014 hPa | 0 mm | - | 0 W/m² | - |
| 1777692457 | 4.44° C | 78% | 1014.1 hPa | 0 mm | - | 0 W/m² | - |
| 1777692153 | 5° C | 77% | 1014 hPa | 0 mm | - | 0 W/m² | - |
| 1777691852 | 5.56° C | 75% | 1014 hPa | 0 mm | - | 0 W/m² | - |
| 1777691549 | 5.56° C | 74% | 1014 hPa | 0 mm | - | 0 W/m² | - |
| 1777691248 | 5.56° C | 73% | 1013.8 hPa | 0 mm | - | 0 W/m² | - |
| 1777690945 | 6.11° C | 72% | 1014 hPa | 0 mm | - | 0 W/m² | - |
| 1777690648 | 6.11° C | 72% | 1013.8 hPa | 0 mm | - | 0 W/m² | - |
| 1777690340 | 6.11° C | 71% | 1014 hPa | 0 mm | - | 0 W/m² | - |
| 1777690038 | 6.67° C | 70% | 1014 hPa | 0 mm | - | 0 W/m² | - |
| 1777689735 | 6.67° C | 69% | 1014 hPa | 0 mm | - | 0 W/m² | - |
* Rain latest hour (hover to see other rain measurements)
** Current wind speed in m/s (hover to see current wind gust speed)